timestamp,wind_dir_avg,wind_spd_max_dir,wind_spd_avg,wind_spd_gust,battery_voltage,lat,long
2021-05-31 00:04:01+00:00,209.0,211.0,6.16,6.99,13.29,47.59359,-54.27349
2021-05-31 00:14:01+00:00,217.0,220.0,6.14,6.71,12.73,47.59359,-54.27349
2021-05-31 00:24:01+00:00,220.0,219.0,5.67,6.43,12.73,47.59359,-54.27349
2021-05-31 00:34:01+00:00,221.0,221.0,5.55,6.05,12.73,47.59359,-54.27349
2021-05-31 00:44:01+00:00,212.0,210.0,6.05,6.5,12.73,47.59359,-54.27349
2021-05-31 00:54:01+00:00,214.0,214.0,5.22,5.74,12.73,47.59359,-54.27349
2021-05-31 01:04:01+00:00,227.0,228.0,4.97,5.49,12.73,47.59359,-54.27349
2021-05-31 01:14:01+00:00,216.0,224.0,4.1,4.69,12.57,47.59359,-54.27349
2021-05-31 01:24:01+00:00,228.0,235.0,3.37,3.81,12.57,47.59359,-54.27349
2021-05-31 01:34:01+00:00,227.0,230.0,2.81,3.22,12.57,47.59359,-54.27349
2021-05-31 01:44:01+00:00,218.0,225.0,2.96,3.37,12.57,47.59359,-54.27349
2021-05-31 01:54:01+00:00,211.0,209.0,2.96,3.44,12.57,47.59359,-54.27349
2021-05-31 02:04:01+00:00,211.0,214.0,2.69,2.98,12.57,47.59359,-54.27349
2021-05-31 02:14:01+00:00,203.0,203.0,3.43,3.74,12.57,47.59359,-54.27349
2021-05-31 02:24:01+00:00,212.0,209.0,2.35,2.57,12.57,47.59359,-54.27349
2021-05-31 02:34:01+00:00,202.0,203.0,2.81,3.18,12.57,47.59359,-54.27349
2021-05-31 02:44:01+00:00,205.0,207.0,4.41,4.7,12.57,47.59359,-54.27349
2021-05-31 02:54:01+00:00,214.0,214.0,3.23,3.54,12.57,47.59359,-54.27349
2021-05-31 03:04:01+00:00,217.0,218.0,3.89,4.49,12.57,47.59359,-54.27349
2021-05-31 03:14:01+00:00,218.0,222.0,2.96,3.27,12.57,47.59359,-54.27349
2021-05-31 03:24:01+00:00,212.0,213.0,3.25,3.61,12.57,47.59359,-54.27349
2021-05-31 03:34:01+00:00,222.0,229.0,4.86,5.15,12.57,47.59359,-54.27349
2021-05-31 03:44:01+00:00,225.0,227.0,3.9,4.52,12.57,47.59359,-54.27349
2021-05-31 03:54:01+00:00,232.0,239.0,2.82,3.27,12.57,47.59359,-54.27349
2021-05-31 04:04:01+00:00,228.0,227.0,2.33,2.7,12.57,47.59359,-54.27349
2021-05-31 04:14:00+00:00,213.0,212.0,3.12,3.43,12.49,47.59359,-54.27349
2021-05-31 04:24:00+00:00,213.0,212.0,3.04,3.31,12.49,47.59359,-54.27349
2021-05-31 04:34:00+00:00,240.0,238.0,2.01,2.52,12.49,47.59359,-54.27349
2021-05-31 04:44:00+00:00,219.0,222.0,2.12,2.39,12.49,47.59359,-54.27349
2021-05-31 04:54:00+00:00,222.0,219.0,2.67,3.28,12.49,47.59359,-54.27349
2021-05-31 05:04:00+00:00,225.0,224.0,2.51,2.76,12.49,47.59359,-54.27349
2021-05-31 05:14:00+00:00,222.0,232.0,2.27,2.68,12.49,47.59359,-54.27349
2021-05-31 05:24:00+00:00,208.0,212.0,1.65,2.0,12.49,47.59359,-54.27349
2021-05-31 05:34:00+00:00,215.0,215.0,1.45,1.65,12.49,47.59359,-54.27349
2021-05-31 05:44:00+00:00,206.0,207.0,1.11,1.21,12.49,47.59359,-54.27349
2021-05-31 05:54:00+00:00,214.0,214.0,0.77,0.87,12.49,47.59359,-54.27349
2021-05-31 06:04:00+00:00,212.0,215.0,1.07,1.23,12.49,47.59359,-54.27349
2021-05-31 06:14:01+00:00,223.0,220.0,1.18,1.38,12.49,47.59359,-54.27349
2021-05-31 06:24:01+00:00,222.0,214.0,2.23,2.59,12.49,47.59359,-54.27349
2021-05-31 06:34:01+00:00,236.0,233.0,1.73,2.0,12.49,47.59359,-54.27349
2021-05-31 06:44:01+00:00,309.0,314.0,1.29,1.47,12.49,47.59359,-54.27349
2021-05-31 06:54:01+00:00,359.0,352.0,0.81,1.01,12.49,47.59359,-54.27349
2021-05-31 07:04:01+00:00,337.0,338.0,1.09,1.43,12.49,47.59359,-54.27349
2021-05-31 07:14:01+00:00,346.0,344.0,0.98,1.17,12.41,47.59359,-54.27349
2021-05-31 07:24:01+00:00,8.0,10.0,0.96,1.08,12.41,47.59359,-54.27349
2021-05-31 07:34:01+00:00,14.0,19.0,0.93,1.06,12.41,47.59359,-54.27349
2021-05-31 07:44:01+00:00,0.0,1.0,1.35,1.56,12.41,47.59359,-54.27349
2021-05-31 07:54:01+00:00,35.0,36.0,0.83,0.99,12.41,47.59359,-54.27349
2021-05-31 08:04:01+00:00,18.0,16.0,0.85,0.95,12.41,47.59359,-54.27349
2021-05-31 08:14:01+00:00,23.0,18.0,0.54,0.68,12.41,47.59359,-54.27349
2021-05-31 08:24:01+00:00,3.0,348.0,0.33,0.53,12.41,47.59359,-54.27349
2021-05-31 08:34:01+00:00,12.0,9.0,0.37,0.49,12.41,47.59359,-54.27349
2021-05-31 08:44:01+00:00,326.0,330.0,0.31,0.44,12.41,47.59359,-54.27349
2021-05-31 08:54:01+00:00,262.0,244.0,0.16,0.26,12.41,47.59359,-54.27349
2021-05-31 09:04:01+00:00,188.0,198.0,0.14,0.25,12.41,47.59359,-54.27349
2021-05-31 09:14:01+00:00,222.0,227.0,0.69,1.06,13.05,47.59359,-54.27349
2021-05-31 09:24:01+00:00,303.0,93.0,0.03,0.39,13.05,47.59359,-54.27349
2021-05-31 09:34:01+00:00,66.0,52.0,0.17,0.42,13.05,47.59359,-54.27349
2021-05-31 09:44:01+00:00,12.0,352.0,0.22,0.37,13.05,47.59359,-54.27349
2021-05-31 09:54:01+00:00,305.0,333.0,0.2,0.36,13.05,47.59359,-54.27349
2021-05-31 10:04:01+00:00,283.0,288.0,0.8,0.9,13.05,47.59359,-54.27349
2021-05-31 10:14:01+00:00,288.0,284.0,0.71,0.85,13.53,47.59359,-54.27349
2021-05-31 10:24:01+00:00,230.0,224.0,0.92,1.2,13.53,47.59359,-54.27349
2021-05-31 10:34:01+00:00,254.0,258.0,0.95,1.15,13.53,47.59359,-54.27349
2021-05-31 10:44:01+00:00,244.0,251.0,0.56,0.78,13.53,47.59359,-54.27349
2021-05-31 10:54:01+00:00,235.0,244.0,0.92,1.08,13.53,47.59359,-54.27349
2021-05-31 11:04:01+00:00,221.0,228.0,1.06,1.19,13.53,47.59359,-54.27349
2021-05-31 11:14:01+00:00,219.0,221.0,1.72,1.99,13.76,47.59359,-54.27349
2021-05-31 11:24:01+00:00,207.0,211.0,1.68,1.84,13.76,47.59359,-54.27349
2021-05-31 11:34:01+00:00,205.0,199.0,2.48,2.95,13.76,47.59359,-54.27349
2021-05-31 11:44:01+00:00,196.0,197.0,2.71,2.86,13.76,47.59359,-54.27349
2021-05-31 11:54:01+00:00,213.0,212.0,2.29,2.52,13.76,47.59359,-54.27349
2021-05-31 12:04:01+00:00,211.0,212.0,2.88,3.13,13.76,47.59359,-54.27349
2021-05-31 12:14:01+00:00,214.0,215.0,2.66,2.84,13.84,47.59359,-54.27349
2021-05-31 12:24:01+00:00,208.0,210.0,2.54,2.69,13.84,47.59359,-54.27349
2021-05-31 12:34:01+00:00,204.0,209.0,1.77,2.3,13.84,47.59359,-54.27349
2021-05-31 12:44:01+00:00,212.0,213.0,3.02,3.54,13.84,47.59359,-54.27349
2021-05-31 12:54:01+00:00,216.0,219.0,3.72,4.14,13.84,47.59359,-54.27349
2021-05-31 13:04:01+00:00,224.0,227.0,4.72,5.2,13.84,47.59359,-54.27349
2021-05-31 13:14:01+00:00,207.0,205.0,4.76,5.02,14.24,47.59359,-54.27349
2021-05-31 13:24:01+00:00,191.0,191.0,4.71,5.35,14.24,47.59359,-54.27349
2021-05-31 13:34:01+00:00,195.0,195.0,5.99,6.48,14.24,47.59359,-54.27349
2021-05-31 13:44:01+00:00,203.0,214.0,5.59,6.68,14.24,47.59359,-54.27349
2021-05-31 13:54:01+00:00,239.0,242.0,5.05,6.25,14.24,47.59359,-54.27349
2021-05-31 14:04:01+00:00,229.0,227.0,8.05,9.28,14.24,47.59359,-54.27349
2021-05-31 14:14:00+00:00,225.0,225.0,8.25,8.98,14.32,47.59359,-54.27349
2021-05-31 14:24:00+00:00,227.0,228.0,7.87,8.9,14.32,47.59359,-54.27349
2021-05-31 14:34:00+00:00,228.0,225.0,7.52,8.27,14.32,47.59359,-54.27349
2021-05-31 14:44:00+00:00,223.0,223.0,7.68,8.57,14.32,47.59359,-54.27349
2021-05-31 14:54:00+00:00,227.0,233.0,7.62,8.57,14.32,47.59359,-54.27349
2021-05-31 15:04:00+00:00,227.0,227.0,8.15,9.52,14.32,47.59359,-54.27349
2021-05-31 15:14:01+00:00,225.0,230.0,8.3,9.52,14.16,47.59359,-54.27349
2021-05-31 15:24:01+00:00,228.0,226.0,9.12,10.31,14.16,47.59359,-54.27349
2021-05-31 15:34:01+00:00,222.0,223.0,9.05,10.16,14.16,47.59359,-54.27349
2021-05-31 15:44:01+00:00,219.0,217.0,8.52,9.6,14.16,47.59359,-54.27349
2021-05-31 15:54:01+00:00,219.0,217.0,8.91,9.72,14.16,47.59359,-54.27349
2021-05-31 16:04:01+00:00,221.0,222.0,9.3,10.09,14.16,47.59359,-54.27349
2021-05-31 16:14:01+00:00,223.0,222.0,8.54,9.78,14.32,47.59359,-54.27349
2021-05-31 16:24:01+00:00,221.0,220.0,9.0,10.02,14.32,47.59359,-54.27349
2021-05-31 16:34:01+00:00,217.0,221.0,9.39,10.94,14.32,47.59359,-54.27349
2021-05-31 16:44:01+00:00,215.0,218.0,10.28,11.41,14.32,47.59359,-54.27349
2021-05-31 16:54:01+00:00,214.0,219.0,9.77,10.88,14.32,47.59359,-54.27349
2021-05-31 17:04:01+00:00,217.0,212.0,10.45,12.05,14.32,47.59359,-54.27349
2021-05-31 17:14:01+00:00,212.0,214.0,9.51,11.1,13.84,47.59359,-54.27349
2021-05-31 17:24:01+00:00,212.0,217.0,8.18,9.37,13.84,47.59359,-54.27349
2021-05-31 17:34:01+00:00,220.0,220.0,8.93,10.43,13.84,47.59359,-54.27349
2021-05-31 17:44:01+00:00,224.0,230.0,10.5,12.09,13.84,47.59359,-54.27349
2021-05-31 17:54:01+00:00,227.0,228.0,11.68,13.17,13.84,47.59359,-54.27349
2021-05-31 18:04:01+00:00,225.0,225.0,11.73,13.42,13.84,47.59359,-54.27349
2021-05-31 18:14:01+00:00,221.0,221.0,10.71,12.39,13.84,47.59359,-54.27349
2021-05-31 18:24:01+00:00,221.0,223.0,10.42,12.19,13.84,47.59359,-54.27349
2021-05-31 18:34:01+00:00,227.0,233.0,10.36,11.71,13.84,47.59359,-54.27349
2021-05-31 18:44:01+00:00,227.0,227.0,10.36,12.06,13.84,47.59359,-54.27349
2021-05-31 18:54:01+00:00,226.0,230.0,10.97,12.36,13.84,47.59359,-54.27349
2021-05-31 19:04:01+00:00,225.0,225.0,9.99,11.07,13.84,47.59359,-54.27349
2021-05-31 19:14:01+00:00,223.0,223.0,8.75,10.04,13.84,47.59359,-54.27349
2021-05-31 19:24:01+00:00,225.0,219.0,8.74,9.43,13.84,47.59359,-54.27349
2021-05-31 19:34:01+00:00,225.0,227.0,9.25,10.03,13.84,47.59359,-54.27349
2021-05-31 19:44:01+00:00,223.0,226.0,8.99,10.67,13.84,47.59359,-54.27349
2021-05-31 19:54:01+00:00,225.0,223.0,8.28,9.47,13.84,47.59359,-54.27349
2021-05-31 20:04:01+00:00,220.0,227.0,8.41,9.81,13.84,47.59359,-54.27349
2021-05-31 20:14:01+00:00,223.0,224.0,8.48,9.96,13.84,47.59359,-54.27349
2021-05-31 20:24:01+00:00,222.0,223.0,8.33,9.75,13.84,47.59359,-54.27349
2021-05-31 20:34:01+00:00,222.0,219.0,7.67,8.72,13.84,47.59359,-54.27349
2021-05-31 20:44:01+00:00,223.0,221.0,7.19,8.57,13.84,47.59359,-54.27349
2021-05-31 20:54:01+00:00,221.0,224.0,8.38,9.92,13.84,47.59359,-54.27349
2021-05-31 21:04:01+00:00,223.0,224.0,8.14,9.92,13.84,47.59359,-54.27349
2021-05-31 21:14:01+00:00,218.0,221.0,8.72,10.22,13.76,47.59359,-54.27349
2021-05-31 21:24:01+00:00,219.0,219.0,8.8,10.78,13.76,47.59359,-54.27349
2021-05-31 21:34:01+00:00,223.0,215.0,8.02,9.82,13.76,47.59359,-54.27349
2021-05-31 21:44:01+00:00,225.0,224.0,9.41,10.61,13.76,47.59359,-54.27349
2021-05-31 21:54:01+00:00,227.0,224.0,10.0,11.29,13.76,47.59359,-54.27349
2021-05-31 22:04:01+00:00,226.0,220.0,8.31,9.77,13.76,47.59359,-54.27349
2021-05-31 22:14:01+00:00,219.0,221.0,9.18,10.81,13.29,47.59359,-54.27349
2021-05-31 22:24:01+00:00,230.0,225.0,8.94,9.84,13.29,47.59359,-54.27349
2021-05-31 22:34:01+00:00,230.0,232.0,10.03,11.05,13.29,47.59359,-54.27349
2021-05-31 22:44:01+00:00,230.0,226.0,9.4,10.84,13.29,47.59359,-54.27349
2021-05-31 22:54:01+00:00,229.0,234.0,8.34,9.99,13.29,47.59359,-54.27349
2021-05-31 23:04:01+00:00,230.0,233.0,7.73,9.24,13.29,47.59359,-54.27349
2021-05-31 23:14:01+00:00,232.0,231.0,7.31,8.88,12.73,47.59359,-54.27349
2021-05-31 23:24:01+00:00,231.0,226.0,7.54,8.98,12.73,47.59359,-54.27349
2021-05-31 23:34:01+00:00,228.0,227.0,7.23,8.37,12.73,47.59359,-54.27349
2021-05-31 23:44:01+00:00,215.0,214.0,8.3,9.78,12.73,47.59359,-54.27349
2021-05-31 23:54:01+00:00,216.0,217.0,8.62,9.72,12.73,47.59359,-54.27349
